Regional Weather Roundup
Issued by NWS Midland/Odessa, TX

Skip options and go directly to product.
Home | Oldest Version | Next Version | Current Version | All | Text Only | Save Text | Print | Product List | Glossary On

Skip product version selection by date and time.   
535
ASUS44 KMAF 220001
RWRMAF
MIDLAND AREA WEATHER ROUNDUP
NATIONAL WEATHER SERVICE MIDLAND TX
600 PM CST SAT JAN 21 2017

...IN SOUTHWEST TEXAS AND SOUTHEAST NEW MEXICO...

CITY           SKY/WX    TMP DP  RH WIND       PRES   REMARKS
ALPINE         CLOUDY    41  35  80 W13G23    29.77S WCI  34
ANDREWS        MOCLDY    51  30  44 NW15G24   29.52R
ARTESIA        CLEAR     48  27  43 W22G31    29.55R
BIG SPRING     PTCLDY    56  27  31 SW36G45   29.52R
CARLSBAD       CLEAR     51  26  37 W38G47    29.53R
DRYDEN           N/A     57  40  52 W18G25    29.63R
FORT STOCKTON  CLOUDY    50  35  56 W23G38    29.66R
GUAD PASS        N/A     41  24  51 SW59G78   29.54F WCI  26
HOBBS          LGT RAIN  50  23  34 W24G39    29.51R
MARFA          LGT RAIN  39  36  89 W18G25    29.76R WCI  30
MIDLAND AIRPK  PTCLDY    56  26  31 W26G37    29.53R
MIDLAND INTL   MOCLDY    55  27  34 W25G39    29.53R
ODESSA         PTCLDY    55  27  34 W26G37    29.54R
PECOS          CLOUDY    51  35  53 SW23G31   29.65R
PRESIDIO       CLOUDY    51  41  69 NW18G26   29.73R
SEMINOLE       PTCLDY    48  31  51 W15G21    29.51R
SNYDER         CLOUDY    58  28  32 SW21      29.45R
WINK           CLEAR     52  31  44 W24G37    29.56S
$$
...OTHER STATIONS IN TEXAS...

CITY           SKY/WX    TMP DP  RH WIND       PRES   REMARKS
ABILENE        PTCLDY    60  33  36 SW18G26   29.45R
AMARILLO       PTCLDY    46  39  76 S6        29.30F
AUSTIN         CLOUDY    74  39  28 NW10G23   29.45R
BROWNSVILLE    CLEAR     80  52  37 SE14      29.44F
CORPUS CHRISTI PTCLDY    84  38  19 S8        29.41R
DALLAS FTW     CLOUDY    56  52  86 E5        29.41R THUNDER
DEL RIO        CLOUDY    66  40  38 NW18G31   29.58R
EL PASO        PTCLDY    47  22  37 W43G63    29.70R WCI  36
HOUSTON INT    PTCLDY    70  55  59 W5        29.47R
LUBBOCK        MOCLDY    53  31  42 W24G36    29.39S
SAN ANGELO     CLOUDY    56  39  53 SW13      29.53F
SAN ANTONIO    CLOUDY    78  36  21 NW9       29.44R
WACO           MOCLDY    62  51  67 NW12      29.46R
WICHITA FALLS  NOT AVBL
$$
...OTHER LOCATIONS IN NEW MEXICO...

CITY           SKY/WX    TMP DP  RH WIND       PRES   REMARKS
ALAMAGORDO     MOCLDY    46  27  46 W20G28    29.68R WCI  39
ALBUQUERQUE    PTCLDY    40  18  41 W22G31    29.59R WCI  30
CANNON AFB     CLEAR     49  21  33 W24G33    29.38R
CLOVIS         CLEAR     48  19  32 W25G38    29.37R
HOLLOMAN AFB   NOT AVBL
ROSWELL        CLEAR     49  25  39 W31G40    29.51S
RUIDOSO        CLOUDY    30  16  55 W26G37    29.56R WCI  16
SANTA FE       CLOUDY    35  23  61 W16       29.53R WCI  25
TRUTH OR CONSE PTCLDY    43  20  39 W25G35    29.68R WCI  33
TUCUMCARI      CLOUDY    50  25  37 W17G24    29.32R
$$

  • National Weather Service
  • Southern Region Headquarters
  • 819 Taylor Street, Room 10A06
  • Fort Worth, TX 76102
  • Page Author: NWS Fort Worth
  • Web Master: SR-SRH.Webmaster@noaa.gov
  •  
  • Page last modified: 30-Sep-2016 6:36 PM UTC
USA.gov is the U.S. government's official web portal to all federal, state and local government web resources and services.